Location: Newark
(53.2933°N, 6.3959°W)
Time: 06:27:18
(UTC+00:00)

Envisat - Pass Details

Date: 24 February 2020
Orbit: 764 x 766 km, 98.1° (Epoch: 07 April)

Event Time Altitude Azimuth Distance (km) Brightness Sun altitude
Rises 18:55:51 0° 194° (SSW) 3,224 6.5 -10.1°
Reaches altitude 10° 18:58:24 10° 205° (SSW) 2,302 5.8 -10.5°
Maximum altitude 19:02:52 31° 267° (W) 1,339 5.2 -11.1°
Drops below altitude 10° 19:07:22 10° 328° (NNW) 2,318 5.9 -11.8°
Sets 19:09:57 0° 339° (NNW) 3,249 6.5 -12.2°
